Home > Weather > Prague > Past weeks

Flag for Czech Republic Past Weather in Prague, Czech Republic — Yesterday and Last 2 Weeks

Now
59 °F

Clear.


Feels Like: 59 °F
Forecast: 63 / 77 °F
Wind: 1 mph from North

Location: Prague Ruzyne Airport

Current Time: Aug 28, 2016 at 7:21:47 AM

Latest Report: Aug 28, 2016 at 7:00 AM


Visibility: 10 mi

Pressure: 30.07 "Hg

Humidity: 88%

Dew Point: 55 °F

Location of PragueLocation

Past Weather in Prague — Graph

°F

Prague Temperature Yesterday

Maximum temperature yesterday: 84 °F (at 3:00 PM)
Minimum temperature yesterday: 55 °F (at 6:30 AM)
Average temperature yesterday: 72 °F

High & Low Weather Summary for the Past Weeks

 TemperatureHumidityPressure
High86 °F (Aug 26, 4:30 PM)100% (Aug 18, 5:30 AM)30.39 "Hg (Aug 18, 5:30 AM)
Low45 °F (Aug 18, 6:30 AM)24% (Aug 19, 3:30 PM)29.80 "Hg (Aug 18, 3:00 PM)
Average66 °F64%30.12 "Hg
* Reported Aug 13 6:00 AM — Aug 28 6:00 AM, Prague, Weather by CustomWeather, © 2016

Note: Actual official high and low records may vary slightly from our data, if they occured in-between our weather recording intervals... More about our weather records

Advertising

Prague Weather History for the Previous 24 Hours

Scroll right to see more
 ConditionsComfort  
Time TempWeatherWind HumidityBarometerVisibility
6:00 AM
Sun, Aug 28
61 °FClear.2 mph88%30.04 "Hg10 mi
5:30 AM59 °FClear.3 mph88%30.07 "Hg10 mi
5:00 AM61 °FClear.2 mph83%30.07 "Hg10 mi
4:30 AM63 °FClear.1 mph83%30.07 "Hg10 mi
4:00 AM64 °FClear.6 mph78%30.07 "Hg10 mi
3:30 AM64 °FClear.6 mph78%30.07 "Hg10 mi
3:00 AM64 °FClear.7 mph78%30.07 "Hg10 mi
2:30 AM64 °FClear.7 mph78%30.07 "Hg10 mi
1:30 AM68 °FClear.8 mph69%30.07 "Hg10 mi
1:00 AM68 °FClear.9 mph69%30.09 "Hg10 mi
12:30 AM70 °FClear.7 mph64%30.09 "Hg10 mi
12:00 AM70 °FClear.9 mph60%30.09 "Hg10 mi
11:30 PM
Sat, Aug 27
68 °FClear.3 mph60%30.09 "Hg10 mi
11:00 PM68 °FClear.2 mph60%30.09 "Hg10 mi
10:30 PM70 °FClear.3 mph57%30.09 "Hg10 mi
10:00 PM73 °FClear.3 mph50%30.09 "Hg10 mi
9:30 PM73 °FClear.3 mph50%30.09 "Hg10 mi
9:00 PM73 °FClear.3 mph50%30.09 "Hg10 mi
8:30 PM75 °FSunny.6 mph47%30.09 "Hg10 mi
8:00 PM75 °FSunny.6 mph47%30.09 "Hg10 mi
7:30 PM77 °FSunny.6 mph47%30.09 "Hg10 mi
7:00 PM81 °FPassing clouds.5 mph42%30.09 "HgN/A
6:30 PM82 °FPassing clouds.5 mph35%30.09 "HgN/A
6:00 PM82 °FPassing clouds.5 mph30%30.09 "HgN/A
5:30 PM84 °FPassing clouds.5 mph29%30.12 "HgN/A
5:00 PM84 °FPassing clouds.6 mph31%30.12 "HgN/A
4:30 PM84 °FPassing clouds.7 mph33%30.12 "HgN/A
4:00 PM84 °FPassing clouds.7 mph33%30.12 "HgN/A
3:30 PM84 °FPassing clouds.7 mph33%30.12 "HgN/A
3:00 PM84 °FPassing clouds.7 mph35%30.12 "HgN/A
2:30 PM82 °FPassing clouds.6 mph37%30.15 "HgN/A
2:00 PM82 °FPassing clouds.7 mph37%30.15 "HgN/A
1:30 PM82 °FPassing clouds.6 mph40%30.15 "HgN/A
1:00 PM81 °FPassing clouds.5 mph42%30.15 "HgN/A
12:30 PM79 °FSunny.2 mph42%30.15 "Hg10 mi
12:00 PM77 °FSunny.6 mph47%30.15 "Hg10 mi
11:30 AM77 °FSunny.6 mph47%30.18 "Hg10 mi
11:00 AM75 °FSunny.3 mph50%30.18 "Hg10 mi
10:30 AM75 °FSunny.3 mph50%30.18 "Hg10 mi
10:00 AM73 °FPassing clouds.5 mph53%30.18 "HgN/A
9:30 AM72 °FSunny.1 mph53%30.18 "Hg10 mi
9:00 AM70 °FSunny.2 mph60%30.15 "Hg10 mi
8:30 AM68 °FSunny.1 mph64%30.15 "Hg10 mi
8:00 AM64 °FSunny.1 mph73%30.15 "Hg10 mi
7:30 AM63 °FSunny.7 mph73%30.15 "Hg10 mi
7:00 AM55 °FPassing clouds.3 mph88%30.15 "HgN/A
Weather by CustomWeather, © 2016

See weather overviewHow to use our weather pages